{"data":{"norad_id":41335,"epoch":"2026-05-25T03:27:07.250688Z","epoch_age_seconds":58468,"freshness":"FRESH","line1":"1 41335U 16011A   26145.14383392  .00000077  00000+0  49654-4 0  9991","line2":"2 41335  98.6255 212.8570 0001206 108.4176 251.7135 14.26738792534773","mean_motion":14.26738792,"eccentricity":0.0001206,"inclination_deg":98.6255,"raan_deg":212.857,"arg_perigee_deg":108.4176,"mean_anomaly_deg":251.7135,"bstar":4.9654e-5,"rev_number":53477,"period_min":100.9294769354,"perigee_km":801.78648170246,"apogee_km":803.51848812622,"semimajor_km":7180.7894849143,"source":"CELESTRAK","updated_at":"2026-05-25T13:38:12.791004Z"}}